Location: Newark
(23.5328°S, 46.7919°W)
Time: 15:25:05
(UTC+00:00)

N. Korean satellite - Pass Details

Date: 05 March 2021
Orbit: 452 x 499 km, 97.2° (Epoch: 17 April)

Event Time Altitude Azimuth Distance (km) Brightness Sun altitude
Rises 07:57:18 0° 10° (N) 2,568 10.2 -16.0°
Reaches altitude 10° 07:59:21 10° 9° (N) 1,697 9.3 -15.6°
Maximum altitude 08:03:00 82° 282° (WNW) 513 6.5 -14.7°
Drops below altitude 10° 08:06:44 10° 193° (SSW) 1,726 9.4 -13.9°
Sets 08:08:50 0° 192° (SSW) 2,616 10.3 -13.4°
